User: anonymous   Login
Location: Kikino
(54.4440°N, 112.0940°W)
Time: 09:03:24
(UTC+00:00)
Language:

Explorer 11/Cluster Stage 4 - Orbit

View from above orbital plane
View from above orbital plane
View from above satellite
View from above satellite

Ground track
Ground track

The orbit data is extracted from the following two-line orbital elements,

1 00107U 61013A   24140.62905159  .00004041  00000-0  50056-3 0  9995
2 00107  28.7933 350.1680 0521712 276.4204  77.7239 14.15218232168647
Epoch (UTC): 19 May 2024 15:05:50
Eccentricity: 0.0521712
inclination: 28.7933°
perigee height: 465 km
apogee height: 1218 km
right ascension of ascending node: 350.1680°
argument of perigee: 276.4204°
revolutions per day: 14.15218232
mean anomaly at epoch: 77.7239°
orbit number at epoch: 16864

The dashed part of the orbit path shows where the satellite is in the earth's shadow,  

DLR